North Platte, NE

3:45 AM CDT on August 19, 2017 (GMT -0500)
North Platte Regional-Bird

Weather History for KLBF - April, 2014

Change the Weather History Date:

Sunday, April 6, 2014

  Actual Average Record
Temperature  
Mean Temperature 52 °F 44 °F  
Max Temperature 67 °F 59 °F 89 °F (1991)
Min Temperature 36 °F 30 °F 13 °F (2007)
Degree Days  
Heating Degree Days 13 21  
Month to date heating degree days 144 129  
Since 1 July heating degree days 6209 5994  
Cooling Degree Days 0 0  
Month to date cooling degree days 0 0  
Year to date cooling degree days 0 0  
Growing Degree Days 2 (Base 50)    
Moisture  
Dew Point 35 °F    
Average Humidity 58    
Maximum Humidity 92    
Minimum Humidity 24    
Precipitation  
Precipitation T in 0.06 in 1.86 in (2001)
Month to date precipitation T 0.32  
Year to date precipitation 1.84 2.21  
Snow  
Snow 0.00 in 0.10 in 6.30 in (2003)
Month to date snowfall T 0.9  
Since 1 July snowfall 28.7 26.2  
Snow Depth 0.00 in    
Sea Level Pressure  
Sea Level Pressure 29.81 in    
Wind  
Wind Speed 9 mph (SW)    
Max Wind Speed 29 mph    
Max Gust Speed 42 mph    
Visibility 10 miles    
Events Rain    
T = Trace of Precipitation, MM = Missing Value Source: NWS Daily Summary

Daily Weather History Graph

Daily Weather History Graph

Search for Another Location

Airport or City:

Trip Planner

Search our weather history database for the weather conditions in past years. The results will help you decide how hot, cold, wet, or windy it might be!

Date:

Astronomy

Apr. 06, 2014 Rise Set
Actual Time 7:17 AM CDT 8:13 PM CDT
Civil Twilight 6:49 AM CDT 8:41 PM CDT
Nautical Twilight 6:16 AM CDT 9:14 PM CDT
Astronomical Twilight 5:41 AM CDT 9:49 PM CDT
Moon 12:18 PM CDT (4/6) 2:12 AM CDT (4/6)
Length of Visible Light 13h 51m
Length of Day
12h 55m
Waxing Crescent, 44% of the Moon is Illuminated
Apr 6
Waxing Crescent
Apr 7
First Quarter
Apr 15
Full
Apr 22
Last Quarter
Apr 29
New

Hourly Weather History & Observations

Time (CDT) Temp. Windchill Dew Point Humidity Pressure Visibility Wind Dir Wind Speed Gust Speed Precip Events Conditions
12:53 AM 48.0 °F - 35.1 °F 61% 29.84 in 10.0 mi South 15.0 mph 23.0 mph N/A   Clear
1:53 AM 45.0 °F 39.7 °F 36.0 °F 71% 29.85 in 10.0 mi South 10.4 mph - N/A   Clear
2:53 AM 45.0 °F 39.3 °F 37.0 °F 74% 29.85 in 10.0 mi SSW 11.5 mph 21.9 mph N/A   Clear
3:53 AM 45.0 °F 38.9 °F 37.9 °F 76% 29.84 in 10.0 mi South 12.7 mph 20.7 mph N/A   Clear
4:53 AM 43.0 °F 37.7 °F 37.9 °F 82% 29.83 in 10.0 mi South 9.2 mph - N/A   Clear
5:53 AM 42.1 °F 37.1 °F 37.9 °F 85% 29.83 in 10.0 mi South 8.1 mph - N/A   Clear
6:53 AM 39.9 °F 35.1 °F 37.9 °F 93% 29.83 in 10.0 mi South 6.9 mph - N/A   Clear
7:53 AM 41.0 °F 35.8 °F 37.4 °F 87% 29.85 in 10.0 mi South 8.1 mph - N/A   Clear
8:53 AM 43.0 °F 37.2 °F 39.0 °F 86% 29.88 in 10.0 mi South 10.4 mph - N/A   Overcast
9:53 AM 46.9 °F - 39.0 °F 74% 29.85 in 10.0 mi SSW 5.8 mph - N/A   Mostly Cloudy
10:53 AM 50.0 °F - 37.9 °F 63% 29.85 in 10.0 mi WNW 5.8 mph - N/A   Partly Cloudy
11:53 AM 53.1 °F - 39.0 °F 59% 29.84 in 10.0 mi Variable 3.5 mph - N/A   Clear
12:53 PM 57.9 °F - 39.9 °F 51% 29.81 in 10.0 mi Variable 3.5 mph - N/A   Clear
1:53 PM 60.1 °F - 37.9 °F 44% 29.79 in 10.0 mi SSW 4.6 mph - N/A   Clear
2:53 PM 66.0 °F - 35.1 °F 32% 29.74 in 10.0 mi Variable 5.8 mph - N/A   Clear
3:53 PM 64.9 °F - 27.0 °F 24% 29.73 in 10.0 mi Variable 6.9 mph - N/A   Mostly Cloudy
4:16 PM 60.1 °F - 32.0 °F 35% 29.75 in 10.0 mi North 19.6 mph 27.6 mph 0.00 in Rain Light Rain
4:53 PM 64.0 °F - 28.9 °F 27% 29.73 in 10.0 mi NW 6.9 mph - 0.00 in   Scattered Clouds
5:41 PM 62.1 °F - 30.9 °F 31% 29.74 in 10.0 mi North 16.1 mph - N/A   Partly Cloudy
5:53 PM 62.1 °F - 30.9 °F 31% 29.73 in 10.0 mi North 13.8 mph - N/A   Clear
6:53 PM 61.0 °F - 28.9 °F 30% 29.74 in 10.0 mi NNW 12.7 mph - N/A   Clear
7:53 PM 50.0 °F - 32.0 °F 50% 29.77 in 10.0 mi NNW 8.1 mph - N/A   Clear
8:53 PM 52.0 °F - 35.1 °F 53% 29.83 in 10.0 mi NNW 29.9 mph 42.6 mph N/A   Mostly Cloudy
9:53 PM 50.0 °F - 36.0 °F 59% 29.86 in 10.0 mi North 12.7 mph 18.4 mph 0.00 in Rain Light Rain
10:53 PM 48.0 °F - 37.0 °F 66% 29.85 in 10.0 mi NE 9.2 mph - 0.00 in   Partly Cloudy
11:53 PM 43.0 °F 40.3 °F 36.0 °F 76% 29.87 in 10.0 mi East 4.6 mph - N/A   Clear